SQ6MTB Weather Reports


time (UTC)temp
C
wind
direction
speed
KPH
gust
KPH
rain 1hr
cm
rain 24hr
cm
rain mn
cm
humidity
%
barometer
mb
20260506124516 19 298 12.9 24.1 0.00 1.22 1.22 58 1005.7
20260506124041 19 206 11.3 27.4 0.00 1.22 1.22 59 1005.6
20260506123601 19 257 16.1 27.4 0.00 1.22 1.22 58 1005.6
20260506123013 19 267 14.5 24.1 0.00 1.22 1.22 59 1005.7
20260506122539 19 229 12.9 22.5 0.00 1.22 1.22 60 1005.6
20260506122057 19 187 9.7 27.4 0.00 1.22 1.22 59 1005.6
20260506121522 19 244 12.9 27.4 0.00 1.22 1.22 60 1005.6
20260506121042 18 269 12.9 25.7 0.00 1.22 1.22 61 1005.6
20260506120506 18 259 17.7 27.4 0.00 1.22 1.22 61 1005.5
20260506120025 18 271 17.7 27.4 0.03 1.22 1.22 62 1005.4
20260506115544 18 261 17.7 27.4 0.03 1.22 1.22 62 1005.3
20260506115009 18 277 8.0 30.6 0.03 1.22 1.22 64 1005.3
20260506114546 18 270 11.3 29.0 0.03 1.22 1.22 64 1005.4
20260506114058 18 263 17.7 29.0 0.03 1.22 1.22 64 1005.6
20260506113515 17 236 16.1 29.0 0.03 1.22 1.22 69 1005.5
20260506113037 17 267 16.1 25.7 0.03 1.22 1.22 69 1005.4
20260506112555 16 210 14.5 22.5 0.03 1.22 1.22 71 1005.6
20260506112015 16 250 8.0 17.7 0.03 1.22 1.22 74 1005.5
20260506111542 16 227 9.7 14.5 0.03 1.22 1.22 74 1005.4
20260506111059 16 231 8.0 17.7 0.03 1.22 1.22 75 1005.5
20260506110523 16 234 9.7 17.7 0.03 1.22 1.22 75 1005.4
20260506110043 16 235 9.7 25.7 0.00 1.19 1.19 73 1005.5
20260506105509 16 217 12.9 25.7 0.00 1.19 1.19 71 1005.4
20260506105028 16 237 9.7 19.3 0.00 1.19 1.19 71 1005.5
20260506104547 16 271 9.7 22.5 0.00 1.19 1.19 72 1005.4
20260506104004 16 263 12.9 22.5 0.00 1.19 1.19 71 1005.5
20260506103535 16 265 14.5 24.1 0.00 1.19 1.19 71 1005.4
20260506103051 16 290 9.7 24.1 0.00 1.19 1.19 72 1005.2
20260506102509 16 238 8.0 17.7 0.00 1.19 1.19 72 1005.3
20260506102028 16 208 9.7 24.1 0.00 1.19 1.19 71 1005.2
20260506101548 16 265 14.5 24.1 0.00 1.19 1.19 72 1005.3
20260506101004 16 257 9.7 20.9 0.00 1.19 1.19 72 1005.4
20260506100530 16 225 8.0 20.9 0.00 1.19 1.19 73 1005.2
20260506100050 16 215 9.7 19.3 0.00 1.19 1.19 72 1005.2
20260506095516 16 223 8.0 16.1 0.00 1.19 1.19 72 1005.1
20260506095040 16 254 8.0 27.4 0.00 1.19 1.19 72 1005.1
20260506094556 16 263 12.9 27.4 0.00 1.19 1.19 70 1005.0
20260506094011 16 277 9.7 19.3 0.00 1.19 1.19 70 1005.0
20260506093532 17 292 12.9 19.3 0.00 1.19 1.19 70 1004.9
20260506093055 17 246 9.7 19.3 0.00 1.19 1.19 70 1005.0
20260506092517 17 239 6.4 24.1 0.00 1.19 1.19 72 1004.9
20260506092031 16 229 8.0 24.1 0.00 1.19 1.19 73 1004.8
20260506091551 16 250 9.7 22.5 0.00 1.19 1.19 72 1004.7
20260506091006 16 241 9.7 19.3 0.00 1.19 1.19 74 1004.7
20260506090534 16 269 12.9 25.7 0.00 1.19 1.19 73 1004.7
20260506090053 16 240 6.4 25.7 0.00 1.19 1.19 73 1004.7
20260506085507 16 256 12.9 24.1 0.00 1.19 1.19 72 1004.6
20260506085027 16 250 11.3 24.1 0.00 1.19 1.19 74 1004.6
20260506084543 16 229 12.9 22.5 0.00 1.19 1.19 74 1004.6
20260506084009 15 272 9.7 22.5 0.00 1.19 1.19 76 1004.4
20260506083530 15 225 11.3 19.3 0.00 1.19 1.19 76 1004.4
20260506083107 15 224 3.2 12.9 0.00 1.19 1.19 78 1004.4
20260506082504 15 246 6.4 14.5 0.00 1.19 1.19 77 1004.4
20260506082035 15 199 4.8 19.3 0.00 1.19 1.19 77 1004.4
20260506081552 15 256 8.0 19.3 0.00 1.19 1.19 79 1004.3
20260506081016 15 228 9.7 19.3 0.00 1.19 1.19 80 1004.4
20260506080535 15 207 6.4 24.1 0.00 1.19 1.19 81 1004.3
20260506073052 13 275 4.8 12.9 0.00 1.19 1.19 87 1004.6
20260506072509 13 227 4.8 17.7 0.00 1.19 1.19 88 1004.5
20260506072039 13 207 8.0 17.7 0.00 1.19 1.19 88 1004.6
20260506071558 13 185 3.2 14.5 0.00 1.19 1.19 89 1004.5
20260506071014 13 165 4.8 11.3 0.00 1.19 1.19 90 1004.4
20260506070536 13 168 1.6 9.7 0.00 1.19 1.19 90 1004.5
20260506070105 13 204 3.2 9.7 0.00 1.19 1.19 90 1004.6
20260506062507 11 144 3.2 8.0 0.00 1.19 1.19 91 1004.4
20260506062036 11 122 1.6 8.0 0.00 1.19 1.19 91 1004.5
20260506061556 11 149 3.2 8.0 0.00 1.19 1.19 91 1004.6
20260506061014 11 179 4.8 11.3 0.00 1.19 1.19 91 1004.6
20260506060535 11 118 4.8 11.3 0.00 1.19 1.19 91 1004.6
20260506051031 11 56 0.0 6.4 0.00 1.19 1.19 91 1004.6
20260506050542 11 147 0.0 6.4 0.00 1.19 1.19 91 1004.6
20260506050105 11 142 3.2 6.4 0.00 1.19 1.19 91 1004.7
20260506045030 11 110 3.2 9.7 0.00 1.19 1.19 91 1004.7
20260506044549 11 62 1.6 11.3 0.00 1.19 1.19 91 1004.7
20260506044010 11 91 4.8 11.3 0.00 1.19 1.19 91 1004.7
20260506043537 11 57 1.6 8.0 0.00 1.19 1.19 91 1004.7
20260506043051 10 90 0.0 6.4 0.00 1.19 1.19 91 1004.7
20260506042507 10 56 1.6 6.4 0.00 1.19 1.19 91 1004.7
20260506042032 10 88 0.0 6.4 0.00 1.19 1.19 91 1004.7
20260506041554 11 124 1.6 4.8 0.00 1.19 1.19 91 1004.8
20260506041007 11 115 0.0 4.8 0.00 1.19 1.19 91 1004.8
20260506040525 11 62 0.0 3.2 0.00 1.19 1.19 91 1004.9
20260506040043 11 132 0.0 3.2 0.00 1.19 1.19 91 1004.9
20260506035509 11 169 0.0 3.2 0.00 1.19 1.19 91 1005.0
20260506035039 11 158 0.0 4.8 0.00 1.19 1.19 91 1004.9
20260506034507 11 182 0.0 3.2 0.00 1.19 1.19 91 1004.9
20260506034026 10 117 0.0 3.2 0.00 1.19 1.19 91 1004.8
20260506033543 10 93 0.0 1.6 0.00 1.19 1.19 91 1004.8
20260506033101 11 169 0.0 4.8 0.00 1.19 1.19 91 1004.7
20260506032528 11 65 0.0 6.4 0.00 1.19 1.19 91 1004.7
20260506032047 11 84 0.0 4.8 0.00 1.19 1.19 91 1004.7
20260506031503 11 226 0.0 9.7 0.00 1.19 1.19 91 1004.6
20260506031025 11 77 1.6 14.5 0.00 1.19 1.19 90 1004.6
20260506030541 11 61 6.4 14.5 0.00 1.19 1.19 90 1004.5
20260506030100 11 53 3.2 14.5 0.00 1.19 1.19 90 1004.5
20260506025522 11 33 4.8 14.5 0.00 1.19 1.19 90 1004.5
20260506025037 11 48 8.0 14.5 0.05 1.19 1.19 90 1004.5
20260506024604 11 98 4.8 12.9 0.08 1.19 1.19 91 1004.7
20260506024010 11 66 4.8 12.9 0.15 1.19 1.19 91 1004.7
20260506023540 11 60 3.2 11.3 0.18 1.19 1.19 90 1004.7
20260506023103 11 46 3.2 14.5 0.20 1.19 1.19 90 1004.9
20260506022514 11 75 6.4 16.1 0.25 1.19 1.19 90 1004.8
20260506022031 11 38 6.4 16.1 0.30 1.19 1.19 90 1004.9
20260506021551 11 49 1.6 14.5 0.33 1.19 1.19 90 1004.8
20260506021006 11 81 6.4 14.5 0.33 1.19 1.19 90 1004.7
20260506020523 11 49 3.2 14.5 0.33 1.19 1.19 90 1004.7
20260506020048 11 76 4.8 20.9 0.33 1.19 1.19 90 1004.7
20260506015602 11 70 4.8 20.9 0.33 1.19 1.19 90 1004.6
20260506015029 11 36 8.0 20.9 0.33 1.14 1.14 90 1004.5
20260506014557 11 40 9.7 20.9 0.33 1.12 1.12 90 1004.4
20260506014004 12 80 9.7 19.3 0.33 1.04 1.04 90 1004.5
20260506013522 12 15 8.0 16.1 0.38 1.02 1.02 90 1005.1
20260506013042 12 355 6.4 16.1 0.43 0.99 0.99 90 1005.1
20260506012607 12 76 8.0 16.1 0.46 0.94 0.94 90 1005.3
20260506012028 12 5 1.6 6.4 0.51 0.89 0.89 90 1006.0
20260506011611 12 23 0.0 3.2 0.56 0.89 0.89 90 1006.0
20260506011002 12 346 0.0 4.8 0.61 0.89 0.89 90 1006.0
20260506010521 12 339 1.6 4.8 0.66 0.89 0.89 90 1006.0
20260506010041 12 9 1.6 4.8 0.66 0.89 0.89 90 1006.1
20260506005601 12 303 0.0 3.2 0.64 0.84 0.84 90 1006.2
20260506005025 12 297 0.0 4.8 0.61 0.79 0.79 90 1006.3
20260506004558 12 344 0.0 8.0 0.58 0.79 0.79 90 1006.3
20260506004010 12 236 0.0 8.0 0.51 0.69 0.69 90 1006.4
20260506003529 12 269 3.2 9.7 0.43 0.61 0.61 90 1006.5
20260506003039 12 249 1.6 11.3 0.38 0.56 0.56 90 1006.6
20260506002554 12 257 4.8 16.1 0.33 0.48 0.48 89 1006.6
20260506002019 12 292 6.4 16.1 0.20 0.36 0.36 89 1006.6
20260506001543 12 198 8.0 14.5 0.15 0.30 0.30 89 1006.8
20260506001058 12 186 8.0 11.3 0.15 0.28 0.28 89 1006.7
20260506000516 12 244 3.2 8.0 0.08 0.23 0.23 89 1006.6
20260506000109 12 201 0.0 8.0 0.05 0.20 0.20 88 1006.3
20260505235602 12 19 1.6 8.0 0.05 0.20 0.20 88 1006.3
20260505235027 12 43 3.2 9.7 0.08 0.20 0.20 88 1006.1
20260505234551 12 36 3.2 9.7 0.08 0.20 0.20 88 1006.1
20260505234011 12 22 0.0 8.0 0.05 0.18 0.18 89 1006.0
20260505233533 12 40 0.0 8.0 0.05 0.18 0.18 88 1006.0
20260505233052 12 360 0.0 8.0 0.05 0.18 0.18 88 1006.0
20260505232509 12 37 1.6 8.0 0.05 0.15 0.15 88 1006.1
20260505232031 12 30 1.6 8.0 0.05 0.15 0.15 88 1006.2
20260505231554 12 74 0.0 6.4 0.05 0.15 0.15 88 1006.1
20260505231005 12 34 0.0 6.4 0.05 0.15 0.15 88 1006.2
20260505230524 12 347 0.0 0.0 0.10 0.15 0.15 88 1006.4
20260505230100 12 347 0.0 6.4 0.15 0.15 0.15 87 1006.4
20260505225513 12 346 0.0 14.5 0.15 0.15 0.15 87 1006.3
20260505225028 12 30 1.6 14.5 0.13 0.13 0.13 87 1006.0
20260505224547 12 54 4.8 17.7 0.13 0.13 0.13 87 1005.9
20260505224004 12 74 9.7 19.3 0.13 0.13 0.13 87 1005.9
20260505223532 12 59 4.8 19.3 0.13 0.13 0.13 87 1005.7
20260505223050 12 54 8.0 19.3 0.13 0.13 0.13 86 1005.8
20260505222520 12 65 9.7 19.3 0.13 0.13 0.13 86 1005.9
20260505222035 13 61 4.8 14.5 0.10 0.10 0.10 86 1006.0
20260505221600 13 355 6.4 17.7 0.10 0.10 0.10 85 1006.0
20260505221011 13 80 6.4 19.3 0.10 0.10 0.10 84 1006.2
20260505220530 13 26 11.3 19.3 0.03 0.03 0.03 83 1006.2
20260505220049 13 65 6.4 12.9 0.00 0.00 0.00 82 1006.5
20260505215503 13 63 1.6 9.7 0.00 0.00 0.00 82 1006.7
20260505215022 13 74 6.4 9.7 0.00 0.00 0.00 81 1006.8
20260505214542 13 40 3.2 9.7 0.00 0.00 0.00 81 1006.8
20260505214104 13 61 4.8 12.9 0.00 0.00 0.00 81 1006.8
20260505213526 13 65 1.6 12.9 0.00 0.00 0.00 81 1007.0
20260505213046 13 52 3.2 9.7 0.00 0.00 0.00 81 1007.0
20260505212512 13 53 3.2 14.5 0.00 0.00 0.00 80 1007.1
20260505212031 13 5 4.8 14.5 0.00 0.00 0.00 80 1007.0
20260505211546 13 81 3.2 8.0 0.00 0.00 0.00 80 1007.0
20260505211003 13 24 1.6 14.5 0.00 0.00 0.00 80 1007.2
20260505210525 13 48 4.8 9.7 0.00 0.00 0.00 80 1007.1
20260505210040 13 37 1.6 16.1 0.00 0.00 0.00 80 1007.0
20260505205559 13 74 3.2 16.1 0.00 0.00 0.00 80 1007.0
20260505205026 13 40 4.8 14.5 0.00 0.00 0.00 80 1007.1
20260505204549 13 66 4.8 14.5 0.00 0.00 0.00 80 1007.2
20260505204101 13 48 3.2 14.5 0.00 0.00 0.00 80 1007.2
20260505203516 13 65 6.4 16.1 0.00 0.00 0.00 80 1007.3
20260505203054 13 64 4.8 14.5 0.00 0.00 0.00 79 1007.3
20260505202509 13 23 6.4 14.5 0.00 0.00 0.00 79 1007.3
20260505202039 14 62 4.8 12.9 0.00 0.00 0.00 79 1007.3
20260505201558 14 55 3.2 16.1 0.00 0.00 0.00 79 1007.3
20260505201007 14 82 8.0 16.1 0.00 0.00 0.00 79 1007.2
20260505200538 14 76 4.8 12.9 0.00 0.00 0.00 79 1007.2
20260505200054 14 59 4.8 14.5 0.00 0.00 0.00 78 1007.2
20260505195508 14 40 6.4 16.1 0.00 0.00 0.00 78 1007.1
20260505195026 14 67 4.8 20.9 0.00 0.00 0.00 78 1007.1
20260505194603 14 42 8.0 20.9 0.00 0.00 0.00 78 1007.1
20260505194011 14 22 4.8 16.1 0.00 0.00 0.00 78 1007.0
20260505193527 15 30 6.4 14.5 0.00 0.00 0.00 78 1007.0
20260505193039 15 50 8.0 14.5 0.00 0.00 0.00 78 1006.9
20260505192554 15 46 3.2 12.9 0.00 0.00 0.00 78 1007.0
20260505192017 15 20 3.2 14.5 0.00 0.00 0.00 78 1007.0
20260505191551 15 13 4.8 14.5 0.00 0.00 0.00 77 1007.0
20260505191055 15 40 4.8 12.9 0.00 0.00 0.00 77 1007.1
20260505190511 15 15 3.2 14.5 0.00 0.00 0.00 77 1007.1
20260505190041 15 44 3.2 16.1 0.00 0.00 0.00 77 1007.0
20260505185504 15 10 4.8 14.5 0.00 0.00 0.00 77 1007.1
20260505185025 15 40 3.2 16.1 0.00 0.00 0.00 76 1007.0
20260505184550 15 22 8.0 16.1 0.00 0.00 0.00 76 1007.1
20260505184004 15 9 6.4 14.5 0.00 0.00 0.00 76 1007.1
20260505183532 16 83 3.2 16.1 0.00 0.00 0.00 75 1007.1
20260505183054 16 351 6.4 16.1 0.00 0.00 0.00 75 1007.1
20260505182508 16 13 6.4 16.1 0.00 0.00 0.00 74 1007.1
20260505182017 16 43 1.6 12.9 0.00 0.00 0.00 74 1007.2
20260505181538 16 5 1.6 12.9 0.00 0.00 0.00 74 1007.2
20260505181058 16 15 3.2 14.5 0.00 0.00 0.00 73 1007.2
20260505180512 16 31 4.8 14.5 0.00 0.00 0.00 73 1007.2
20260505180048 16 15 1.6 14.5 0.00 0.00 0.00 73 1007.1
20260505175508 16 22 0.0 14.5 0.00 0.00 0.00 73 1007.1
20260505175039 16 20 4.8 12.9 0.00 0.00 0.00 73 1007.1
20260505174556 16 328 1.6 14.5 0.00 0.00 0.00 73 1007.1
20260505174011 17 355 6.4 14.5 0.00 0.00 0.00 72 1007.1
20260505173536 17 36 3.2 12.9 0.00 0.00 0.00 72 1007.1
20260505173112 17 36 4.8 16.1 0.00 0.00 0.00 71 1007.1
20260505172521 17 355 3.2 16.1 0.00 0.00 0.00 71 1007.1
20260505172032 17 11 8.0 16.1 0.00 0.00 0.00 70 1007.2
20260505171608 17 360 4.8 17.7 0.00 0.00 0.00 69 1007.2
20260505171008 17 360 6.4 16.1 0.00 0.00 0.00 70 1007.1
20260505170526 17 17 3.2 19.3 0.00 0.00 0.00 71 1007.2
20260505170046 17 337 4.8 19.3 0.00 0.00 0.00 70 1007.2
20260505165503 17 328 6.4 17.7 0.00 0.00 0.00 69 1007.2
20260505165027 18 355 6.4 17.7 0.00 0.00 0.00 69 1007.2
20260505164545 18 324 6.4 17.7 0.00 0.00 0.00 68 1007.1
20260505164002 18 27 1.6 17.7 0.00 0.00 0.00 67 1007.1
20260505163525 18 44 6.4 16.1 0.00 0.00 0.00 66 1007.1
20260505163045 18 22 4.8 16.1 0.00 0.00 0.00 65 1007.1
20260505162511 18 306 4.8 14.5 0.00 0.00 0.00 65 1007.1
20260505162029 18 344 6.4 14.5 0.00 0.00 0.00 65 1007.1
20260505161552 18 320 1.6 14.5 0.00 0.00 0.00 64 1007.3
20260505161013 18 336 4.8 20.9 0.00 0.00 0.00 63 1007.3
20260505160533 19 355 8.0 20.9 0.00 0.00 0.00 63 1007.3
20260505153056 20 344 6.4 22.5 0.00 0.00 0.00 62 1007.3
20260505152511 20 14 1.6 20.9 0.00 0.00 0.00 62 1007.4
20260505152042 20 355 9.7 20.9 0.00 0.00 0.00 61 1007.5
20260505151602 20 350 4.8 16.1 0.00 0.00 0.00 61 1007.4
20260505151027 21 10 6.4 12.9 0.00 0.00 0.00 61 1007.3
20260505150546 21 17 3.2 19.3 0.00 0.00 0.00 61 1007.3
20260505150120 20 309 8.0 19.3 0.00 0.00 0.00 61 1007.5
20260505140525 20 360 9.7 20.9 0.00 0.00 0.00 63 1007.7
20260505125026 20 37 6.4 14.5 0.00 0.00 0.00 62 1007.9